TITAN 3C TRANSTAGE DEB, 26528

Orbit data source: Space-Track

TITAN 3C TRANSTAGE DEB, 26528 is space debris in HEO originally from a launch on Tue, 21 Dec 1965 UTC launched from the Air Force Eastern Test Range (AFETR). Debris objects in space refer to the collection of defunct objects orbiting the Earth. Examples of debris include non-operational satellites, rocket bodies, and fragments generated from explosions, collisions, or faulty payload assembly.

Loading next visibility...
Identifier
26528, 1965-108AP
Orbit
HEO
Country
Flag of USUS
Related business
Manufacturer
Unknown
Mission
Spacecraft
Bus & Motor
Unknown
Mass
Unknown
Launch date (UTC)
1965-12-21 (60 years ago)
Launch vehicle
Unknown
Launch site
Air Force Eastern Test Range (AFETR)
Object type
Payload
Rocket body
Debris
Shape & HBR
Unknown
Radar Cross Section
Medium (>0.1 m² and <1 m²)

Expand to show TLE details & history
Last TLE update: 2 days ago

TLE from 2 days ago
0 TITAN 3C TRANSTAGE DEB
1 26528U 65108AP  25240.80786725 -.00000426  00000-0 -12352-1 0  9997
2 26528  27.4901  38.0198 6675394 114.4446 281.1247  2.68112385260594
Epoch: 2025-08-28T19:23Z
TLE epoch observation values (Epoch: 2025-08-28T19:23:19.73Z)
Latitude
-14.66817°
Longitude
99.76336°
Altitude
21,446.169 km
Speed
3.231 km/s
True Right ascension
00h 31m 26s
True Declination
-14° 38' 48"
Sunlit
Object was in daylight at epoch
Visualization orbit readout
Latitude
Unknown
Longitude
Unknown
Altitude
Unknown
Speed
Unknown
Apparent Right ascension
Unknown
Apparent Declination
Unknown
Sunlit
N/A
Visualization observer readout
Local Sidereal Time
16:05:08
Azimuth
Unknown
Elevation
Unknown
Doppler factor
Unknown
Orbital elements
Apogee altitude
30,125.217 km
Perigee altitude
899.608 km
Semi-major axis
21,890.55 km
Eccentricity
0.66754
Inclination
27.4901°
RAAN
38.0198°
Arg. of periapsis
114.4446°
True anomaly
212.4258°
Mean anomaly
281.1247°
Eccentric anomaly
246.14492°
Mean motion
0.67013 °/min
Orbital period
537.21 mins
BSTAR
-0.012352
Loading maneuver chart data...
Computing Atmospheric mass density...

Documentation

Showing up to 5 results
|